Showing default

BD-18, 40748

Orbit data source: Space-Track

BD-18, 40748 is a payload satellite owned by CNSA (CN) in MEO that was launched on Sat, 25 Jul 2015 UTC via a CHANG ZHENG 3B/YZ-1 launch vehicle from the Xichang Space Center, China (XSC). Payload-class satellites include a variety of spacecraft equipped with specific instruments for various scientific and technological missions. These include communications satellites like Starlink; space stations such as the ISS; scientific satellites like the Hubble; Earth observation satellites from companies like Planet Labs, Umbra, and HawkEye 360; GPS; miniature CubeSats for education and research; and military/defense satellites.

Loading next visibility...
Identifier
40748, 2015-037A
Orbit
MEO
Country
Flag of CNCN / PRC
Related business
Manufacturer
CAST
Mission
Awaiting activation Defense Navigation
Bus & Motor
BD-3M, Unknown motor
Mass
1,014 kg wet, ~850 kg dry
Launch date (UTC)
2015-07-25 (11 years ago)
Launch vehicle
CHANG ZHENG 3B/YZ-1
Launch site
Xichang Space Center, China (XSC)
Object type
Payload
Rocket body
Debris
Shape & HBR
Box + 2 Pan, 5.0 m
Radar Cross Section
8.984 m², Large (>1 m²)

Expand to show TLE details & history
Last TLE update: 2 days ago

TLE from 2 days ago
0 BD-18
1 40748U 15037A   26168.86030058 -.00000074  00000-0  00000+0 0  9993
2 40748  54.8706 302.0235 0008383 259.0863 100.8108  1.86231904 74132
Epoch: 2026-06-17T20:38Z
TLE epoch observation values (Epoch: 2026-06-17T20:38:49.970Z)
Latitude
0.00001°
Longitude
86.18298°
Altitude
21,532.611 km
Speed
3.779 km/s
True Right ascension
20h 08m 00s
True Declination
0° 00' 00"
Sunlit
Object was in daylight at epoch
Visualization orbit readout
Latitude
Unknown
Longitude
Unknown
Altitude
Unknown
Speed
Unknown
Apparent Right ascension
Unknown
Apparent Declination
Unknown
Sunlit
N/A
Visualization observer readout
Local Sidereal Time
03:02:09
Azimuth
Unknown
Elevation
Unknown
Doppler factor
Unknown
Orbital elements
Apogee altitude
21,551.367 km
Perigee altitude
21,504.579 km
Semi-major axis
27,906.11 km
Eccentricity
0.00084
Inclination
54.8706°
RAAN
302.0235°
Arg. of periapsis
259.0863°
True anomaly
100.90514°
Mean anomaly
100.8108°
Eccentric anomaly
100.85797°
Mean motion
0.46558 °/min
Orbital period
773.23 mins
BSTAR
0
Loading maneuver chart data...
Computing Atmospheric mass density...
Loading historical data...
Loading historical data...
Loading historical data...
Loading historical data...
Loading historical data...
Loading historical data...
Loading historical data...
Other satellites on launch #37 in the year 2015 (2015-07-25 UTC)

Documentation

Showing up to 5 results
|